Regional Weather Roundup
Issued by NWS

Home | Current Version | Previous Version | Graphics & Text | Print | Product List | Glossary On
Versions: 1 2 3 4 5 6 7 8 9 10 11 12 13 14 15 16 17 18 19 20 21 22 23 24 25 26 27 28 29 30 31 32 33 34 35 36 37 38 39 40 41 42 43 44 45 46 47 48 49 50
000
ASUS43 KMPX 261310
RWRMN
WEATHER ROUNDUP FOR MINNESOTA
NATIONAL WEATHER SERVICE TWIN CITIES/CHANHASSEN MN
700 AM CST WED NOV 26 2014


NOTE: "FAIR" INDICATES FEW OR NO CLOUDS BELOW 12,000 FEET WITH NO
SIGNIFICANT WEATHER AND/OR OBSTRUCTIONS TO VISIBILITY. N/A MEANS
CURRENT SKY AND/OR WEATHER CONDITIONS ARE NOT AVAILABLE.

MNZ060>063-068>070-261400-
   Twin Cities Metro

CITY           SKY/WX    TMP DP  RH WIND       PRES   REMARKS
TWIN CITIES    LGT SNOW  22  19  89 NE7       30.09R FOG     WCI  13
ST PAUL        LGT SNOW  23  18  81 E3        30.10R
CRYSTAL        CLOUDY    25  15  66 NE7       30.08R WCI  17
BLAINE         CLOUDY    25  19  80 N5        30.08  WCI  19
LAKEVILLE      LGT SNOW  19  19 100 NE9       30.06R WCI   9
EDEN PRAIRIE   LGT SNOW  23  21  92 NE5       30.06R VSB 1   WCI  17
SOUTH ST PAUL  LGT SNOW  24  19  80 E3        30.08R
LAKE ELMO      FLURRIES  25  19  80 NE5       30.09R WCI  19
$$
MNZ001>005-007-008-013>017-022>024-027-028-261400-
   Northwest Minnesota

CITY           SKY/WX    TMP DP  RH WIND       PRES   REMARKS
BEMIDJI        FLURRIES  10   6  84 N10       30.19R WCI  -3
HALLOCK        PTCLDY    -6  -9  84 MISG      30.38R
ROSEAU         PTCLDY    -6 -11  77 N6        30.31R WCI -18
WARROAD        CLEAR     -6 -11  77 NW7       30.30R WCI -20
THIEF RVR FALL CLOUDY     0  -6  78 N10       30.29R WCI -17
CROOKSTON      PTCLDY    -2  -6  84 N13       30.34R WCI -21
FOSSTON        CLOUDY     1   0  92 N15       30.25R WCI -18
DETROIT LAKES  PTCLDY    12  10  92 N15       30.19R WCI  -4
MOORHEAD       CLOUDY     5   3  92 N21       30.28R FOG     WCI -16
PARK RAPIDS    CLOUDY    15  10  80 N14       30.15R WCI   0
MAHNOMEN       CLOUDY     7   3  84 N17       30.22R WCI -12
$$
MNZ006-009>011-018-025>026-261400-
   North Central Minnesota

CITY           SKY/WX    TMP DP  RH WIND       PRES   REMARKS
BAUDETTE       CLEAR      0  -5  79 N13       30.25R WCI -18
FLAG ISLAND    CLEAR     -8 -11  84 NW8       30.29R WCI -23
INTL FALLS     PTCLDY     6   2  83 N12       30.20R WCI  -9
WASKISH        PTCLDY     5   1  85 NW6       30.24R WCI  -6
BIG FORK       LGT SNOW  12   9  85 N6        30.17R WCI   3
LONGVILLE      CLOUDY    16  12  86 N7        30.15R WCI   6
GRAND RAPIDS   PTCLDY    14  10  85 N7        30.13R WCI   4
CRANE LAKE     FLURRIES  12   9  85 N7        30.18R WCI   2
ORR            CLOUDY    12   9  85 CALM      30.13R
COOK           LGT SNOW  10   9  92 CALM      30.14R
WALKER         CLOUDY    13   9  82 N9        30.17R WCI   1
$$
MNZ012-019>021-037-261400-
   Northeast Minnesota

CITY           SKY/WX    TMP DP  RH WIND       PRES   REMARKS
DULUTH         LGT SNOW  18  13  80 N6        30.10R WCI  10
ELY            LGT SNOW  12  10  92 CALM      30.11R
HIBBING        CLOUDY    16  10  77 N7        30.13R WCI   6
EVELETH        LGT SNOW  18  14  86 CALM      30.13R
DULUTH HARBOR  FLURRIES  21  18  86 CALM      30.16R
TWO HARBORS    FLURRIES  21  14  73 CALM      30.10R
SILVER BAY     LGT SNOW  19  12  73 NW3       30.10R
GRAND MARAIS     N/A     20  12  71 NW8       30.14R WCI  10
G MARAIS ARPRT FLURRIES  10   7  85 CALM      30.05R
$$
MNZ029>031-032-039>041-046>048-054>057-064-261400-
   West Central Minnesota

CITY           SKY/WX    TMP DP  RH WIND       PRES   REMARKS
FERGUS FALLS   MOCLDY    16   9  73 N12G17    30.21R WCI   3
WHEATON        FLURRIES   9   7  92 NW21G28   30.22R WCI -11
MORRIS         CLOUDY    19  18  93 N16       30.13R WCI   5
ALEXANDRIA     LGT SNOW  20  15  81 N14       30.12R WCI   7
ELBOW LAKE       N/A     18  15  87 N10       30.15R WCI   6
WADENA         MOCLDY    16  12  86 N7        30.14R WCI   6
GLENWOOD       LGT SNOW  19  16  86 N10       30.10R WCI   8
APPLETON       LGT SNOW  21  19  93 N17       30.14R WCI   7
BENSON         LGT SNOW  19  19 100 NE10      30.12R WCI   8
ORTONVILLE     LGT SNOW  16  12  86 N20G25    30.16R WCI  -1
MADISON        LGT SNOW  25  21  86 N20       30.13R WCI  11
WILLMAR        LGT SNOW  25  19  80 N14       30.10R WCI  13
$$
MNZ033>034-036-042>043-049>051-058-059-261400-
   Central Minnesota

CITY           SKY/WX    TMP DP  RH WIND       PRES   REMARKS
ST CLOUD       LGT SNOW  23  17  78 N6        30.11R WCI  16
SAUK CENTRE    FLURRIES  19  16  87 N12       30.11R WCI   7
PAYNESVILLE    FLURRIES  19  17  94 NW8       30.10R WCI   8
AITKIN         MIX PCPN  19  14  79 CALM      30.12R
PINE RIVER     MOCLDY    18  12  79 N10G16    30.17R WCI   6
BRAINERD       LGT SNOW  17  14  88 N10       30.13R FOG     WCI   5
STAPLES        FLURRIES  18  14  86 N7        30.13R WCI   8
LONG PRAIRIE   MOCLDY    19  16  86 N10       30.12R WCI   8
LITTLE FALLS   LGT SNOW  19  18  93 N3        30.13R
LITCHFIELD     LGT SNOW  23  21  93 NE10      30.08R WCI  12
BUFFALO        LGT SNOW  23  19  84 N7        30.10R WCI  15
MAPLE LAKE     LGT SNOW  24  21  89 N7        30.09R WCI  16
$$
MNZ037-044-045-052-053-261400-
   East Central Minnesota

CITY           SKY/WX    TMP DP  RH WIND       PRES   REMARKS
PRINCETON      CLOUDY    23  18  80 N6        30.10R WCI  16
MORA           PTCLDY    21  16  79 N5        30.13R WCI  15
CAMBRIDGE      CLOUDY    25  16  68 N3        30.09R
RUSH CITY      CLOUDY    22  18  85 N5        30.11R WCI  15
MOOSE LAKE     CLOUDY    19  14  79 N3        30.11R
HINCKLEY       CLOUDY    21  19  93 CALM      30.11S
CLOQUET        LGT SNOW  18  12  79 NW5       30.11R WCI  11
MCGREGOR       CLOUDY    19  14  79 N3        30.13R
$$
MNZ071>073-080-081-089-090-097-098-261400-
   Southwest Minnesota

CITY           SKY/WX    TMP DP  RH WIND       PRES   REMARKS
MONTEVIDEO     LGT SNOW  21  21 100 NE14      30.11R WCI   8
GRANITE FALLS  CLOUDY    23  21  91 N15G22    30.10R FOG     WCI  10
CANBY          LGT SNOW  21  19  93 N13G23    30.12R WCI   9
MARSHALL       CLOUDY    23  18  80 N18       30.06R WCI   9
REDWOOD FALLS  LGT SNOW  24  22  91 N10       30.05R FOG     WCI  14
OLIVIA         LGT SNOW  25  21  86 N12       30.06R WCI  14
PIPESTONE      LGT SNOW  23  21  93 NE21G28   30.00R WCI   8
WINDOM         LGT SNOW  25  23  93 N13       29.98R WCI  13
WORTHINGTON    CLOUDY    23  21  93 N17       29.97R WCI   9
JACKSON        LGT SNOW  27  27 100 NE12      29.96R WCI  16
TRACY          LGT SNOW  24  23  96 N16       30.04R WCI  11
SLAYTON        LGT SNOW  22  22  99 N18       29.99R WCI   8
$$
MNZ065>067-074>077-082>085-091>093-261400-
   South Central Minnesota

CITY           SKY/WX    TMP DP  RH WIND       PRES   REMARKS
MANKATO        CLOUDY    25  19  80 NE10      30.01R WCI  15
NEW ULM        SNOW      23  23 100 NE9       30.02R VSB 1/2 WCI  13
ST JAMES       LGT SNOW  27  25  93 N13       30.01R WCI  16
FAIRMONT       CLOUDY    25  21  86 N7        29.96R WCI  17
GLENCOE        LGT SNOW  24  23  96 NE5       30.06R WCI  18
FARIBAULT      LGT SNOW  21  21 100 NE8       30.03R WCI  12
OWATONNA       LGT SNOW  25  21  86 E8        30.00R WCI  16
WASECA         LGT SNOW  25  21  86 NE9       30.00R WCI  15
ALBERT LEA     FLURRIES  27  23  86 SE10      29.97R WCI  17
$$
MNZ078>079-086>088-094>096-261400-
   Southeast Minnesota

CITY           SKY/WX    TMP DP  RH WIND       PRES   REMARKS
ROCHESTER      CLOUDY    21  17  84 E12       30.02R WCI   9
RED WING       CLOUDY    23  16  74 E8        30.08R WCI  14
STANTON        LGT SNOW  24  20  85 E8        30.04R WCI  15
DODGE CENTER   FLURRIES  23  21  93 E12       30.00R WCI  12
WINONA         CLOUDY    23  18  80 SE9       30.11R WCI  13
AUSTIN         CLOUDY    25  21  86 E9        29.98R WCI  15
PRESTON        CLOUDY    19  17  89 E7        30.03R WCI  10
$$
ABBREVIATIONS USED IN REMARKS
   TC - TEMPERATURES IN CELSIUS
  WCI - WIND CHILL INDEX
   HX - HEAT INDEX
  VSB - VISIBILITY
$$



USA.gov is the U.S. government's official web portal to all federal, state and local government web resources and services.